Location: Christchurch
(43.5330°S, 172.6330°E)
Time: 16:24:26
(UTC+12:00)

Cosmos 1862 - Pass Details

Date: 24 January 2019
Orbit: 538 x 558 km, 82.5° (Epoch: 18 April)

Event Time Altitude Azimuth Distance (km) Brightness Sun altitude
Rises 22:17:00 0° 189° (S) 2,760 7.7 -11.7°
Reaches altitude 10° 22:19:12 10° 188° (S) 1,853 6.8 -12.0°
Maximum altitude 22:23:17 87° 99° (E) 560 3.3 -12.5°
Enters shadow 22:26:42 14° 8° (N) 1,575 5.2 -13.0°
